Terminal Aerodrome Forecast
Issued by NWS St Louis, MO

Home | Current Version | Previous Version | Text Only | Print | Product List | Glossary On
Versions: 1 2 3 4 5 6 7 8 9 10 11 12 13 14 15 16 17 18 19 20 21 22 23 24 25 26 27 28 29 30 31 32 33
000
FTUS43 KLSX 191100
TAFSTL
TAF
KSTL 191120Z 1912/2018 22006KT P6SM BKN200
     FM191500 22008KT P6SM VCSH SCT030 BKN120
     FM191900 22008KT P6SM SCT040 BKN250
     FM200100 22005KT P6SM SCT250=

USA.gov is the U.S. government's official web portal to all federal, state and local government web resources and services.